User: anonymous   Login
Location: Vancouver
(49.2500°N, 123.1330°W)
Time: 04:37:41
(UTC-08:00)
Language:

Cosmos 1340 Rocket - Orbit

View from above orbital plane
View from above orbital plane
View from above satellite
View from above satellite

Ground track
Ground track

The orbit data is extracted from the following two-line orbital elements,

1 13068U 82013B   17054.48261175  .00000386  00000-0  24240-4 0  9996
2 13068  81.2048 352.2621 0021514 336.7704  23.2545 15.06838963906372
Epoch (UTC): 23 February 2017 11:34:57
Eccentricity: 0.0021514
inclination: 81.2048°
perigee height: 531 km
apogee height: 561 km
right ascension of ascending node: 352.2621°
argument of perigee: 336.7704°
revolutions per day: 15.06838963
mean anomaly at epoch: 23.2545°
orbit number at epoch: 90637

The dashed part of the orbit path shows where the satellite is in the earth's shadow,  

DLR